Tulsa, OK

1:24 PM CDT on September 29, 2016 (GMT -0500)
Tulsa International

Weather History for KTUL - June, 2013

Change the Weather History Date:

Tuesday, June 4, 2013

  Actual Average Record
Temperature  
Mean Temperature 74 °F 74 °F  
Max Temperature 81 °F 84 °F 102 °F (1911)
Min Temperature 66 °F 65 °F 49 °F (1954)
Cooling Degree Days 9 10  
Month to date cooling degree days 16 37  
Year to date cooling degree days 208 271  
Since 1 June cooling degree days 16 37  
Growing Degree Days 24 (Base 50)    
Moisture  
Dew Point 67 °F    
Average Humidity 81    
Maximum Humidity 93    
Minimum Humidity 69    
Precipitation  
Precipitation 0.35 in 0.19 in 3.32 in (2012)
Month to date precipitation 0.35 0.74  
Year to date precipitation 14.23 17.24  
Sea Level Pressure  
Sea Level Pressure 29.87 in    
Wind  
Wind Speed 10 mph (SE)    
Max Wind Speed 26 mph    
Max Gust Speed 40 mph    
Visibility 9 miles    
Events Rain , Thunderstorm    
T = Trace of Precipitation, MM = Missing Value Source: NWS Daily Summary

Daily Weather History Graph

Daily Weather History Graph

Search for Another Location

Airport or City:

Trip Planner

Search our weather history database for the weather conditions in past years. The results will help you decide how hot, cold, wet, or windy it might be!

Date:

Astronomy

Jun. 04, 2013 Rise Set
Actual Time 6:06 AM CDT 8:37 PM CDT
Civil Twilight 5:36 AM CDT 9:07 PM CDT
Nautical Twilight 4:59 AM CDT 9:44 PM CDT
Astronomical Twilight 4:18 AM CDT 10:25 PM CDT
Moon 3:31 AM CDT (6/4) 5:12 PM CDT (6/4)
Length of Visible Light 15h 30m
Length of Day
14h 30m
Waning Crescent, 14% of the Moon is Illuminated
Jun 4
Waning Crescent
Jun 8
New
Jun 16
First Quarter
Jun 23
Full
Jun 29
Last Quarter

Hourly Weather History & Observations

Time (CDT) Temp. Heat Index Dew Point Humidity Pressure Visibility Wind Dir Wind Speed Gust Speed Precip Events Conditions
12:53 AM 70.0 °F - 63.0 °F 78% 29.87 in 10.0 mi SE 6.9 mph - N/A   Overcast
1:53 AM 71.1 °F - 63.0 °F 75% 29.88 in 10.0 mi SSE 8.1 mph - N/A   Overcast
2:53 AM 70.0 °F - 64.0 °F 81% 29.83 in 10.0 mi South 8.1 mph - N/A   Overcast
3:53 AM 70.0 °F - 64.0 °F 81% 29.85 in 10.0 mi SSE 8.1 mph - N/A   Overcast
4:53 AM 69.8 °F - 64.4 °F 83% 29.89 in 10.0 mi South 6.9 mph - N/A   Overcast
5:08 AM 69.1 °F - 64.9 °F 87% 29.92 in 10.0 mi South 4.6 mph - 0.00 in Rain , Thunderstorm Light Thunderstorms and Rain
5:53 AM 68.0 °F - 66.0 °F 93% 29.95 in 5.0 mi SW 10.4 mph - 0.05 in Rain , Thunderstorm Thunderstorms and Rain
6:53 AM 68.0 °F - 66.0 °F 93% 29.93 in 5.0 mi SSW 15.0 mph 24.2 mph 0.11 in Rain , Thunderstorm Thunderstorms and Rain
7:25 AM 66.9 °F - 64.9 °F 93% 29.90 in 6.0 mi South 18.4 mph - 0.12 in Rain Light Rain
7:53 AM 66.9 °F - 64.0 °F 90% 29.78 in 7.0 mi SSE 18.4 mph 33.4 mph 0.19 in Rain Light Rain
8:53 AM 68.0 °F - 64.0 °F 87% 29.83 in 10.0 mi South 13.8 mph - 0.00 in   Overcast
9:53 AM 69.1 °F - 64.0 °F 84% 29.83 in 10.0 mi SSE 15.0 mph 25.3 mph N/A   Overcast
10:53 AM 71.1 °F - 66.0 °F 84% 29.88 in 10.0 mi NE 6.9 mph - N/A   Mostly Cloudy
11:53 AM 73.0 °F - 66.9 °F 81% 29.89 in 10.0 mi Variable 5.8 mph - N/A   Mostly Cloudy
12:53 PM 75.0 °F - 68.0 °F 79% 29.87 in 10.0 mi ESE 5.8 mph - N/A   Scattered Clouds
1:53 PM 77.0 °F - 68.0 °F 74% 29.87 in 10.0 mi ENE 8.1 mph - N/A   Scattered Clouds
2:37 PM 78.1 °F - 69.1 °F 74% 29.88 in 10.0 mi East 11.5 mph - N/A   Mostly Cloudy
2:53 PM 77.0 °F - 69.1 °F 76% 29.86 in 10.0 mi East 9.2 mph - N/A   Mostly Cloudy
3:53 PM 79.0 °F - 69.1 °F 72% 29.86 in 10.0 mi ESE 10.4 mph - N/A   Mostly Cloudy
4:15 PM 80.1 °F 82.9 °F 69.1 °F 69% 29.87 in 10.0 mi SE 13.8 mph 19.6 mph N/A   Scattered Clouds
4:53 PM 80.1 °F 82.9 °F 69.1 °F 69% 29.84 in 10.0 mi SE 12.7 mph - N/A   Scattered Clouds
5:53 PM 81.0 °F 84.1 °F 69.1 °F 67% 29.83 in 10.0 mi South 10.4 mph - N/A   Scattered Clouds
6:53 PM 79.0 °F - 69.1 °F 72% 29.85 in 10.0 mi SSE 8.1 mph - N/A   Mostly Cloudy
7:53 PM 78.1 °F - 68.0 °F 71% 29.86 in 10.0 mi SE 8.1 mph - N/A   Mostly Cloudy
8:53 PM 75.0 °F - 69.1 °F 82% 29.86 in 10.0 mi ESE 8.1 mph - N/A   Mostly Cloudy
9:53 PM 73.9 °F - 69.1 °F 85% 29.87 in 10.0 mi ESE 9.2 mph - N/A   Scattered Clouds
10:53 PM 73.9 °F - 69.1 °F 85% 29.89 in 10.0 mi ESE 9.2 mph - N/A   Mostly Cloudy
11:53 PM 73.0 °F - 68.0 °F 84% 29.88 in 10.0 mi SE 11.5 mph - N/A   Mostly Cloudy